[[{"header":{"parameterUnit":"m.s-1","parameterCategory":1,"la1":30.2991,"la2":30.254,"lo1":-89.0895,"lo2":-89.0444,"dy":0.0017,"dx":0.0017,"nx":28,"ny":28,"refTime":"2023-09-30T03:00:00:Z","depth":0,"parameterNumber":2,"parameterNumberName":"U-component_of_WINDS"},"data":[0,0,0,0,0,0,0,0,0,0,0,0,0,0,0,0,0,0,0,0,0,0,0,0,0,0,0,0,0,0,0,0,0,0,0,0,0,0,0,0,0,0,0,0,0,0,0,0,0,0,0,0,0,0,0,0,0,0,-3.0126,-3.0125,0,-3.0071,-3.0071,-3.007,-2.9964,-2.9962,-2.996,-2.9958,-2.9905,-2.9905,-2.9906,0,0,0,0,0,0,0,0,0,0,0,0,0,-3.0142,-3.0143,-3.0126,-3.0125,-3.0124,-3.0071,-3.0071,-3.007,-2.9965,-2.9962,-2.996,-2.9957,-2.9904,-2.9905,-2.9906,0,0,0,0,0,0,0,0,0,0,0,0,0,-3.0116,-3.0143,-3.0126,-3.0066,-3.006,-3.0071,-3.0071,-3.007,-2.9965,-2.9962,-2.9959,-2.9956,-2.9904,-2.9905,-2.9906,-2.9973,0,0,-2.9908,-2.9908,0,0,0,0,0,0,0,0,-3.0118,-3.0116,-3.0075,-3.007,-3.0063,-3.0021,-3.0057,-3.0037,-2.9966,-3.0001,-2.9958,-2.9955,-2.9946,-2.9943,-2.994,-2.997,-2.9968,-2.9908,-2.9909,-2.9909,-2.9909,0,0,0,0,0,0,0,-3.012,-3.0118,-3.0104,-3.0075,-3.0067,-3.0042,-3.0035,-3.0052,-2.9992,-2.9998,-2.999,-2.9985,-2.9942,-2.9939,-2.9938,-2.9967,-2.9908,-2.9909,-2.9909,-2.991,-3.0053,-3.0056,0,0,0,0,0,0,-3.013,-3.012,-3.0106,-3.0103,-3.0083,-3.0045,-3.0036,-3.0038,-2.9991,-2.9981,-2.9988,-2.998,-2.994,-2.9937,-2.9936,-3.0013,-2.9909,-2.991,-2.991,-3.0049,-3.0054,-3.0057,0,0,0,0,0,0,-3.0131,-3.013,-3.0108,-3.0109,-3.0104,-3.0048,-3.005,-3.0039,-3.0035,-2.9984,-2.9973,-2.9996,-2.9937,-2.9935,-2.9965,-3.001,-2.991,-2.9911,-3.0046,-3.0051,-3.0055,-3.0167,0,0,0,0,0,0,-3.0132,-3.0131,-3.0155,-3.011,-3.0105,-3.0138,-3.0053,-3.004,-3.0037,-3.0027,-2.9988,-2.9979,-2.9934,-2.9964,-2.9966,-3.0009,-2.9911,-3.0041,-3.0048,-3.0054,-3.016,-3.0176,-3.019,0,0,0,0,0,-3.0133,-3.0188,-3.0156,-3.0155,-3.0133,-3.014,-3.0137,-3.0084,-3.0041,-3.0065,-3.0032,-2.998,-3.0004,-2.9968,-2.9969,-3.0013,-3.0038,-3.0046,-3.0053,-3.0153,-3.0173,-3.0189,0,0,0,0,0,0,-3.024,-3.0181,-3.0145,-3.0188,-3.017,-3.0122,-3.0151,-3.0106,-3.0101,-3.0091,-3.0027,-3.0019,-3.0059,-3.0038,-2.9999,-3.0077,-3.0013,-3.0021,-3.0089,-3.0107,-3.0122,-3.0126,-2.9912,0,0,0,0,0,-3.0268,-3.0278,-3.0226,-3.0269,-3.0262,-3.0209,-3.021,-3.0171,-3.0149,-3.0141,-3.011,-3.0093,-3.0097,-3.01,-3.0101,-3.0156,-3.0147,-3.0187,-3.0202,-3.0214,-3.0223,-3.0253,-3.0271,-3.0082,-3.0082,-3.0082,0,0,-3.0327,-3.0296,-3.0306,-3.029,-3.0271,-3.0284,-3.0203,-3.0219,-3.0229,-3.0144,-3.0171,-3.0148,-3.0124,-3.0168,-3.0186,-3.0153,-3.0273,-3.0224,-3.0234,-3.0236,-3.0263,-3.0281,-3.0297,-3.0087,-3.0086,-3.0085,0,0,-3.0441,-3.0418,-3.0453,-3.0436,-3.0409,-3.0373,-3.0382,-3.0341,-3.0323,-3.0349,-3.0287,-3.0297,-3.0304,-3.0291,-3.0285,-3.0397,-3.035,-3.0399,-3.0478,-3.0508,-3.0523,-3.0536,-3.0578,-3.0594,-3.0407,-3.0407,-3.0407,0,-3.0519,-3.0534,-3.0476,-3.0497,-3.0493,-3.0417,-3.0452,-3.0439,-3.0414,-3.0413,-3.0376,-3.0385,-3.0363,-3.0404,-3.0432,-3.0429,-3.0438,-3.0403,-3.0525,-3.0538,-3.0549,-3.0589,-3.0605,-3.0414,-3.0413,-3.0412,-3.0412,0,-3.0632,-3.0644,-3.0675,-3.0653,-3.0652,-3.068,-3.0627,-3.0634,-3.0595,-3.0565,-3.0594,-3.0565,-3.056,-3.0566,-3.0529,-3.0603,-3.0583,-3.0537,-3.0472,-3.0574,-3.0611,-3.0625,-3.0423,-3.042,-3.0418,-3.0417,0,0,-3.0811,-3.0758,-3.077,-3.076,-3.0726,-3.0735,-3.0761,-3.0755,-3.0763,-3.0748,-3.077,-3.0779,-3.0736,-3.073,-3.069,-3.0717,-3.0811,-3.0667,-3.0666,-3.0697,-3.0893,-3.093,-3.0948,-3.0779,-3.0781,-3.0783,-3.0896,0,-3.0919,-3.096,-3.0909,-3.0961,-3.0973,-3.0902,-3.0924,-3.0907,-3.0879,-3.0886,-3.0856,-3.0864,-3.0806,-3.0802,-3.0825,-3.0794,-3.085,-3.0785,-3.08,-3.0801,-3.081,-3.0967,-3.1005,-3.1112,-3.091,-3.0912,-3.0914,0,-3.1051,-3.1043,-3.1097,-3.1061,-3.1064,-3.1085,-3.1077,-3.1084,-3.1064,-3.1042,-3.1036,-3.0989,-3.1014,-3.095,-3.0984,-3.0942,-3.0945,-3.0931,-3.0934,-3.0935,-3.0865,-3.0974,-3.1145,-3.1163,-3.0935,-3.0933,-3.0932,0,-3.1179,-3.1183,-3.1215,-3.1209,-3.1167,-3.1185,-3.1168,-3.1144,-3.1145,-3.1139,-3.1139,-3.1136,-3.1134,-3.1134,-3.1088,-3.1045,-3.1129,-3.1061,-3.1114,-3.1115,-3.1135,-3.1135,-3.1312,-3.1135,-3.1135,-3.1134,-3.1134,0,-3.1306,-3.1342,-3.1273,-3.1293,-3.1332,-3.1274,-3.1315,-3.1291,-3.1271,-3.1287,-3.1225,-3.1242,-3.118,-3.119,-3.1155,-3.119,-3.1189,-3.1174,-3.1165,-3.1181,-3.1183,-3.1183,-3.1175,-3.1138,-3.1137,-3.1137,-3.1136,0,-3.1457,-3.1411,-3.1443,-3.1402,-3.1392,-3.1423,-3.1388,-3.1407,-3.1375,-3.1397,-3.1398,-3.135,-3.1359,-3.1313,-3.1314,-3.129,-3.1345,-3.1321,-3.1352,-3.1345,-3.1402,-3.1398,-3.1586,-3.1609,-3.1416,-3.1418,-3.1419,0,-3.1542,-3.1568,-3.153,-3.1536,-3.1523,-3.1533,-3.1534,-3.1478,-3.1482,-3.1462,-3.1483,-3.1488,-3.1488,-3.1507,-3.1473,-3.1474,-3.1452,-3.1518,-3.1452,-3.1468,-3.1455,-3.1455,-3.1459,-3.1532,-3.1534,-3.1536,-3.1538,0,-3.1698,-3.1675,-3.1677,-3.1674,-3.1676,-3.167,-3.1661,-3.167,-3.161,-3.1617,-3.1626,-3.1627,-3.1629,-3.1635,-3.1629,-3.1614,-3.1568,-3.1559,-3.1572,-3.1589,-3.1607,-3.16,-3.1392,-3.1555,-3.1553,-3.1552,-3.1551,-3.1551,-3.1819,-3.184,-3.1817,-3.1823,-3.181,-3.1803,-3.1819,-3.179,-3.1796,-3.1793,-3.176,-3.1776,-3.1757,-3.1745,-3.1735,-3.1748,-3.1717,-3.1734,-3.1739,-3.1745,-3.1756,-3.1604,-3.1746,-3.1746,-3.1745,-3.1745,-3.1744,0,-3.1974,-3.1956,-3.1962,-3.1951,-3.1957,-3.1911,-3.1898,-3.1907,-3.1921,-3.1907,-3.1909,-3.1921,-3.1927,-3.1894,-3.1896,-3.1913,-3.1892,-3.1916,-3.1915,-3.1913,-3.1782,-3.1772,-3.1933,-3.1933,-3.1933,-3.1933,-3.1933,-3.1933,-3.2055,-3.2089,-3.2064,-3.2091,-3.2073,-3.2088,-3.2085,-3.2079,-3.2068,-3.2083,-3.2088,-3.2066,-3.2045,-3.2046,-3.205,-3.204,-3.2045,-3.2077,-3.206,-3.194,-3.1921,-3.1904,-3.1894,-3.2078,-3.2078,-3.2189,-3.219,-3.2191]},{"header":{"parameterUnit":"m.s-1","parameterCategory":1,"la1":30.2991,"la2":30.254,"lo1":-89.0895,"lo2":-89.0444,"dy":0.0017,"dx":0.0017,"nx":28,"ny":28,"refTime":"2023-09-30T03:00:00:Z","depth":0,"parameterNumber":3,"parameterNumberName":"V-component_of_WINDS"},"data":[0,0,0,0,0,0,0,0,0,0,0,0,0,0,0,0,0,0,0,0,0,0,0,0,0,0,0,0,0,0,0,0,0,0,0,0,0,0,0,0,0,0,0,0,0,0,0,0,0,0,0,0,0,0,0,0,0,0,2.1186,2.1186,0,2.1177,2.1177,2.1177,2.1224,2.1226,2.1227,2.1229,2.1212,2.121,2.1208,0,0,0,0,0,0,0,0,0,0,0,0,0,2.1237,2.1236,2.1186,2.1186,2.1186,2.1177,2.1177,2.1177,2.1224,2.1226,2.1228,2.1229,2.1212,2.121,2.1208,0,0,0,0,0,0,0,0,0,0,0,0,0,2.122,2.1236,2.1186,2.1209,2.1211,2.1177,2.1177,2.1177,2.1224,2.1226,2.1228,2.123,2.1213,2.121,2.1208,2.115,0,0,2.12,2.1199,0,0,0,0,0,0,0,0,2.1221,2.1218,2.1205,2.1207,2.1209,2.1204,2.1189,2.1168,2.1223,2.1219,2.1229,2.1231,2.1207,2.1205,2.1199,2.1149,2.1149,2.1199,2.1198,2.1197,2.1196,0,0,0,0,0,0,0,2.1222,2.1219,2.1182,2.1205,2.1207,2.1217,2.1217,2.1185,2.1201,2.1219,2.1223,2.1221,2.1208,2.1201,2.1198,2.1148,2.12,2.1197,2.1196,2.1195,2.1051,2.1049,0,0,0,0,0,0,2.1221,2.122,2.1183,2.1182,2.1221,2.1214,2.1214,2.1204,2.1202,2.1203,2.122,2.1224,2.1204,2.1201,2.1198,2.1129,2.1197,2.1194,2.1193,2.1053,2.1051,2.1048,0,0,0,0,0,0,2.1222,2.1218,2.1183,2.1202,2.1198,2.1211,2.1199,2.1202,2.1195,2.1202,2.1204,2.1209,2.1206,2.1202,2.1162,2.1129,2.1193,2.1191,2.1056,2.1053,2.1049,2.0992,0,0,0,0,0,0,2.1224,2.1218,2.1197,2.1201,2.1197,2.1149,2.1197,2.1201,2.1191,2.1197,2.1193,2.1194,2.1207,2.1166,2.116,2.1127,2.1189,2.1059,2.1054,2.1051,2.0997,2.0987,2.0979,0,0,0,0,0,2.1225,2.118,2.1196,2.1191,2.1172,2.1147,2.1144,2.1162,2.1189,2.1167,2.1172,2.1194,2.1135,2.1161,2.1155,2.1121,2.1061,2.1056,2.1051,2.1001,2.0989,2.0979,0,0,0,0,0,0,2.1168,2.118,2.1198,2.1153,2.1149,2.1155,2.1128,2.1149,2.1135,2.114,2.1161,2.116,2.1116,2.1115,2.1144,2.1065,2.1102,2.1096,2.1066,2.1055,2.1047,2.1046,2.1187,0,0,0,0,0,2.1151,2.1132,2.1143,2.1102,2.1099,2.1114,2.1104,2.1119,2.1114,2.1111,2.1113,2.1105,2.1085,2.1071,2.1053,2.0999,2.0997,2.0972,2.0963,2.0956,2.0948,2.0918,2.0907,2.1032,2.1032,2.1032,0,0,2.1113,2.1118,2.1104,2.109,2.1089,2.1066,2.1112,2.1086,2.1069,2.1106,2.1069,2.1071,2.1064,2.1017,2.0996,2.1014,2.0914,2.0949,2.0943,2.094,2.0912,2.09,2.0889,2.1028,2.1029,2.1029,0,0,2.1033,2.1036,2.1002,2.1001,2.0999,2.101,2.1002,2.1005,2.1008,2.0973,2.1,2.098,2.0944,2.0938,2.093,2.0851,2.087,2.0845,2.0796,2.0766,2.0756,2.0748,2.0717,2.0706,2.0838,2.0838,2.0838,0,2.0986,2.0955,2.0981,2.0954,2.0946,2.0984,2.0948,2.0944,2.0935,2.0928,2.0951,2.0908,2.0906,2.0857,2.0838,2.0832,2.0821,2.0843,2.0757,2.0748,2.074,2.0711,2.07,2.0835,2.0835,2.0836,2.0836,0,2.0896,2.0875,2.0847,2.0841,2.0831,2.0799,2.0818,2.0805,2.0821,2.0829,2.0792,2.0792,2.0773,2.0764,2.0779,2.0717,2.0729,2.0754,2.079,2.0724,2.0697,2.0686,2.083,2.0831,2.0832,2.0833,0,0,2.0775,2.0787,2.0776,2.0773,2.0776,2.0758,2.0729,2.0714,2.0701,2.0695,2.0668,2.064,2.0663,2.0654,2.0669,2.0644,2.0579,2.0672,2.0672,2.0652,2.0509,2.0487,2.0474,2.0594,2.0592,2.0591,2.0508,0,2.0695,2.0646,2.067,2.0617,2.0597,2.0634,2.0607,2.0605,2.0612,2.0594,2.0602,2.058,2.0615,2.061,2.0587,2.0592,2.055,2.0599,2.0566,2.0565,2.0563,2.046,2.0437,2.0359,2.0498,2.0496,2.0495,0,2.0593,2.0586,2.0532,2.054,2.0532,2.0508,2.0497,2.0481,2.0478,2.0486,2.0477,2.0499,2.0468,2.0509,2.0465,2.0498,2.0487,2.0487,2.0485,2.0479,2.0523,2.0448,2.0335,2.0321,2.0479,2.048,2.0481,0,2.0507,2.0484,2.0448,2.0446,2.0454,2.0436,2.0438,2.0439,2.0429,2.0419,2.0412,2.0398,2.0389,2.0377,2.0393,2.0422,2.0346,2.0389,2.0348,2.0348,2.0327,2.0327,2.0206,2.0326,2.0326,2.0327,2.0327,0,2.0412,2.0377,2.041,2.0387,2.0349,2.0377,2.0337,2.0343,2.0344,2.0321,2.0353,2.0331,2.0356,2.0336,2.0349,2.0309,2.0306,2.0309,2.0311,2.0303,2.0303,2.0293,2.0297,2.0324,2.0324,2.0325,2.0325,0,2.0307,2.0328,2.0291,2.0304,2.0306,2.0277,2.0286,2.0265,2.0277,2.0249,2.0244,2.026,2.0239,2.0255,2.0233,2.0242,2.0189,2.0202,2.019,2.0192,2.015,2.0152,2.0015,1.9997,2.0132,2.0131,2.013,0,2.0243,2.0217,2.0228,2.0217,2.0218,2.02,2.0191,2.0218,2.0207,2.0204,2.0182,2.0165,2.0151,2.0114,2.0123,2.0106,2.0116,2.007,2.0113,2.0106,2.0111,2.0111,2.0107,2.0059,2.0057,2.0056,2.0055,0,2.0126,2.0139,2.0126,2.0117,2.0107,2.01,2.0096,2.0085,2.0112,2.0098,2.0078,2.0068,2.0048,2.0028,2.0015,2.0015,2.0037,2.0042,2.0031,2.002,2.0013,2.0013,2.0162,2.0044,2.0045,2.0046,2.0046,2.0047,2.0037,2.0016,2.0021,2.0005,2.0006,2.0002,1.9983,1.9994,1.9979,1.9966,1.9983,1.9957,1.9957,1.9942,1.9939,1.9919,1.9937,1.9922,1.9918,1.9912,1.9905,2.0021,1.9917,1.9917,1.9917,1.9918,1.9918,0,1.992,1.9926,1.9912,1.9907,1.9894,1.9923,1.992,1.9907,1.9885,1.9885,1.9872,1.9848,1.9831,1.984,1.9823,1.9805,1.9815,1.9799,1.9798,1.9798,1.9891,1.99,1.9791,1.9791,1.9791,1.9791,1.9791,1.9791,1.9857,1.9822,1.9835,1.9801,1.9806,1.9784,1.978,1.9776,1.9775,1.9749,1.9735,1.9743,1.9745,1.973,1.9714,1.9717,1.9708,1.9687,1.9693,1.9779,1.9791,1.9803,1.9812,1.9686,1.9686,1.9602,1.9601,1.96]}]]